Flag for Mauritania Weather past 2 weeks in Nouakchott, Mauritania

Now
106 °F

Passing clouds.


Feels Like: 99 °F
Forecast: N/A
Wind: 6 mph from Northeast

Location: Nouakchott Airport


UV Index: N/A

Visibility: N/A


Pressure: 29.80 "Hg

Humidity: 6%

Dew point: 27 °F

Location of NouakchottLocation

Historic Weather in Nouakchott

°F

Nouakchott temperature yesterday

Maximum temperature yesterday: 104 °F (at 1:30 PM)
Minimum temperature yesterday: 72 °F (at 12:00 AM)
Average temperature yesterday: 82 °F

Past Weeks' High & Low Weather Summary

 TemperatureHumidityPressure
High109 °F (Apr 17, 1:30 PM)100% (Apr 10, 2:30 AM)29.95 "Hg (Apr 10, 2:30 AM)
Low63 °F (Apr 9, 11:00 PM)6% (Apr 24, 12:30 PM)29.71 "Hg (Apr 18, 5:00 PM)
Average79 °F48%29.85 "Hg
* Reported Apr 9 2:30 PM — Apr 24 2:00 PM, Nouakchott, Weather by CustomWeather, © 2014

Note: Actual official high and low records may vary slightly from our data, if they occured in-between our weather recording intervals... More about our weather records

Advertising

Historic Weather Conditions — Data for Previous 24 hours

 ConditionsComfort  
Time TempWeatherWind HumidityBarometerVisibility
2:00 PM
Apr 24
106 °FPassing clouds.9 mph6%29.80 "HgN/A
1:30 PM106 °FPassing clouds.8 mph7%29.83 "HgN/A
1:00 PM104 °FPassing clouds.12 mph6%29.83 "HgN/A
12:30 PM104 °FPassing clouds.12 mph6%29.83 "HgN/A
12:00 PM100 °FPassing clouds.12 mph7%29.86 "HgN/A
11:30 AM99 °FSunny.14 mph8%29.86 "Hg10 mi
11:00 AM95 °FSunny.10 mph10%29.86 "Hg10 mi
10:30 AM91 °FSunny.13 mph11%29.89 "Hg10 mi
10:00 AM90 °FSunny.14 mph13%29.89 "Hg10 mi
9:30 AM86 °FSunny.12 mph14%29.89 "Hg10 mi
9:00 AM81 °FSunny.12 mph20%29.89 "Hg10 mi
8:30 AM79 °FSunny.9 mph23%29.86 "Hg10 mi
8:00 AM75 °FPassing clouds.8 mph27%29.86 "HgN/A
7:30 AM73 °FSunny.8 mph31%29.86 "Hg10 mi
7:00 AM73 °FSunny.7 mph33%29.83 "Hg10 mi
6:30 AM72 °FClear.7 mph41%29.83 "Hg10 mi
6:00 AM72 °FClear.7 mph47%29.83 "Hg10 mi
5:30 AM73 °FClear.12 mph47%29.80 "Hg10 mi
5:00 AM73 °FClear.12 mph50%29.80 "Hg10 mi
4:30 AM73 °FClear.8 mph57%29.80 "Hg10 mi
4:00 AM73 °FClear.8 mph61%29.80 "Hg10 mi
3:30 AM73 °FClear.8 mph65%29.83 "Hg10 mi
3:00 AM73 °FClear.7 mph69%29.83 "Hg10 mi
2:30 AM73 °FMild.7 mph74%29.83 "HgN/A
2:00 AM73 °FPassing clouds.7 mph74%29.83 "HgN/A
1:30 AM73 °FClear.7 mph74%29.86 "Hg10 mi
1:00 AM73 °FPassing clouds.7 mph69%29.86 "HgN/A
12:30 AM73 °FClear.9 mph69%29.86 "Hg10 mi
12:00 AM73 °FClear.7 mph69%29.86 "Hg10 mi
11:30 PM
Apr 23
73 °FClear.8 mph65%29.89 "Hg10 mi
11:00 PM75 °FPassing clouds.9 mph61%29.86 "HgN/A
10:30 PM73 °FPassing clouds.8 mph65%29.86 "HgN/A
10:00 PM75 °FClear.12 mph57%29.86 "Hg10 mi
9:30 PM77 °FClear.12 mph47%29.86 "Hg10 mi
9:00 PM77 °FClear.13 mph47%29.83 "Hg10 mi
8:30 PM79 °FClear.12 mph42%29.83 "Hg10 mi
8:00 PM81 °FClear.13 mph39%29.83 "Hg10 mi
7:30 PM81 °FClear.14 mph37%29.83 "Hg10 mi
7:00 PM84 °FSunny.13 mph31%29.80 "Hg10 mi
6:30 PM84 °FSunny.13 mph31%29.80 "Hg10 mi
6:00 PM84 °FSunny.13 mph31%29.80 "Hg10 mi
5:30 PM84 °FSunny.15 mph31%29.80 "Hg10 mi
5:00 PM84 °FSunny.15 mph33%29.80 "Hg10 mi
4:30 PM90 °FPassing clouds.14 mph24%29.80 "HgN/A
4:00 PM91 °FSunny.15 mph20%29.80 "Hg10 mi
3:30 PM93 °FSunny.14 mph17%29.80 "Hg10 mi
3:00 PM95 °FSunny.13 mph16%29.80 "Hg10 mi
Weather by CustomWeather, © 2014

See weather overview